Location: Three Oaks Observatory
(31.1535°N, 83.5955°W)
Time: 08:01:48
(UTC-04:00)

DOVE 4 - Visible Passes

Search period start: 21 March 2019 00:00
Search period end: 31 March 2019 00:00
Orbit: 589 x 803 km, 97.7° (Epoch: 21 March)

Date Brightness Start Highest point End Pass type
(mag) Time Alt. Az. Time Alt. Az. Time Alt. Az.
26 Mar ? 05:00:13 10° N 05:00:15 10° N 05:00:15 10° N visible
28 Mar ? 04:43:51 10° NNE 04:43:58 11° NNE 04:43:58 11° NNE visible
29 Mar ? 05:25:01 10° NNW 05:25:11 11° NNW 05:25:11 11° NNW visible
30 Mar ? 04:27:37 10° NNE 04:27:41 10° NNE 04:27:41 10° NNE visible
